Location: River House Observatory
(37.8577°N, 76.3548°W)
Time: 06:57:40
(UTC-05:00)

N. Korean satellite - Visible Passes

Search period start: 18 November 2017 00:00
Search period end: 28 November 2017 00:00
Orbit: 460 x 515 km, 97.2° (Epoch: 17 November)

Date Brightness Start Highest point End Pass type
(mag) Time Alt. Az. Time Alt. Az. Time Alt. Az.
18 Nov 8.1 17:14:45 10° ESE 17:16:55 16° ENE 17:19:06 10° NNE visible
18 Nov 8.8 18:47:17 10° SSW 18:50:12 25° W 18:53:11 10° NW visible
19 Nov 9.2 06:15:47 10° NE 06:19:00 27° E 06:22:14 10° SSE visible
19 Nov 7.2 18:23:15 10° S 18:26:39 54° W 18:30:08 10° NNW visible
20 Nov 10.0 05:53:22 10° ENE 05:55:24 14° E 05:57:27 10° SE visible
20 Nov 6.4 17:59:44 10° SSE 18:03:11 66° ENE 18:06:43 10° N visible
21 Nov 7.3 17:36:42 10° SE 17:39:48 30° ENE 17:42:58 10° N visible
21 Nov 9.9 19:11:46 10° WSW 19:13:25 13° W 19:15:04 10° WNW visible
22 Nov 8.1 17:14:17 10° ESE 17:16:29 16° ENE 17:18:43 10° NNE visible
22 Nov 8.8 18:46:49 10° SSW 18:49:46 25° W 18:52:47 10° NW visible
23 Nov 9.2 06:15:21 10° NE 06:18:36 27° E 06:21:50 10° SSE visible
23 Nov 7.2 18:22:46 10° S 18:26:12 55° W 18:29:43 10° NNW visible
24 Nov 10.0 05:52:56 10° ENE 05:54:58 14° E 05:57:00 10° SE visible
24 Nov 6.4 17:59:14 10° SSE 18:02:43 66° ENE 18:06:17 10° N visible
25 Nov 7.3 17:36:11 10° SE 17:39:18 31° ENE 17:42:30 10° N visible
25 Nov 9.9 19:11:12 10° WSW 19:12:55 13° W 19:14:39 10° WNW visible
26 Nov 8.1 17:13:44 10° ESE 17:15:58 16° ENE 17:18:15 10° NNE visible
26 Nov 8.8 18:46:16 10° SSW 18:49:15 26° W 18:52:19 10° NW visible
27 Nov 9.2 06:14:52 10° NE 06:18:07 27° E 06:21:19 10° SSE visible
27 Nov 7.2 18:22:12 10° S 18:25:40 55° W 18:29:14 10° NNW visible
